This is the latest recevied weather packets stored in our database for station/object Huerbel. If no packets are shown the sender has not sent any weather packets the latest 10 day(s).
| Time | Temp. | Humidity | Pressure | Rain* | Wind** | Luminosity | Snow |
|---|---|---|---|---|---|---|---|
| 1777437132 | 9.44° C | 58% | 1019.5 hPa | 0 mm | - | - | - |
| 1777435331 | 10° C | 57% | 1019.5 hPa | 0 mm | - | - | - |
| 1777433531 | 10.56° C | 54% | 1019.2 hPa | 0 mm | - | - | - |
| 1777431732 | 10.56° C | 54% | 1018.9 hPa | 0 mm | - | - | - |
| 1777429932 | 11.11° C | 54% | 1019 hPa | 0 mm | - | - | - |
| 1777428132 | 11.67° C | 53% | 1019 hPa | 0 mm | - | - | - |
| 1777426337 | 11.67° C | 52% | 1019 hPa | 0 mm | - | - | - |
| 1777424532 | 11.67° C | 51% | 1018.9 hPa | 0 mm | - | - | - |
| 1777422731 | 12.22° C | 51% | 1019 hPa | 0 mm | - | - | - |
| 1777420930 | 12.22° C | 50% | 1019.2 hPa | 0 mm | - | - | - |
| 1777419129 | 12.22° C | 50% | 1019.2 hPa | 0 mm | - | - | - |
| 1777417329 | 12.78° C | 49% | 1019.2 hPa | 0 mm | - | - | - |
| 1777415530 | 12.78° C | 49% | 1019.2 hPa | 0 mm | - | - | - |
| 1777411929 | 13.33° C | 49% | 1019.1 hPa | 0 mm | - | - | - |
| 1777410130 | 13.33° C | 50% | 1018.9 hPa | 0 mm | - | - | - |
| 1777408330 | 13.33° C | 54% | 1018.9 hPa | 0 mm | - | - | - |
| 1777406537 | 13.89° C | 56% | 1018.9 hPa | 0 mm | - | - | - |
| 1777404730 | 14.44° C | 54% | 1018.8 hPa | 0 mm | - | - | - |
| 1777402947 | 15° C | 48% | 1018.6 hPa | 0 mm | - | - | - |
| 1777401130 | 15° C | 46% | 1018.4 hPa | 0 mm | - | - | - |
| 1777399330 | 16.11° C | 41% | 1018.2 hPa | 0 mm | - | - | - |
| 1777397531 | 17.22° C | 36% | 1017.7 hPa | 0 mm | - | - | - |
| 1777395730 | 17.78° C | 37% | 1017.4 hPa | 0 mm | - | - | - |
| 1777393932 | 18.33° C | 36% | 1017.3 hPa | 0 mm | - | - | - |
| 1777392131 | 19.44° C | 35% | 1017.3 hPa | 0 mm | - | - | - |
* Rain since midnight (hover to see other rain measurements)
** Current wind speed in m/s (hover to see current wind gust speed)